Location: Allen Lane School
(37.8198°N, 89.7382°W)
Time: 20:20:51
(UTC+00:00)

Tiangong - Visible Passes

Search period start: 09 December 2022 00:00
Search period end: 19 December 2022 00:00
Orbit: 386 x 392 km, 41.5° (Epoch: 09 December)

Date Brightness Start Highest point End Pass type
(mag) Time Alt. Az. Time Alt. Az. Time Alt. Az.
09 Dec 1.1 01:08:08 10° W 01:08:50 15° W 01:08:50 15° W visible
10 Dec -2.0 00:09:48 10° WNW 00:12:59 69° SSW 00:13:44 46° SE visible
10 Dec -2.2 23:11:31 10° WNW 23:14:41 77° NNE 23:17:52 10° ESE visible
11 Dec 0.3 00:48:53 10° W 00:51:07 21° SW 00:51:07 21° SW visible
11 Dec -0.7 23:50:13 10° W 23:53:11 37° SSW 23:56:09 10° SE visible
13 Dec 1.1 00:30:19 10° WSW 00:31:21 11° SW 00:32:25 10° SSW visible
13 Dec 0.7 23:30:44 10° W 23:33:08 20° SSW 23:35:32 10° SSE visible
15 Dec 1.7 23:12:24 10° SW 23:12:49 10° SW 23:13:14 10° SSW visible
